Location: Maiden
(35.5760°N, 81.2120°W)
Time: 02:37:58
(UTC-04:00)

Vanguard 2 - Pass Details

Date: 06 August 2020
Orbit: 553 x 2937 km, 32.9° (Epoch: 20 September)

Event Time Altitude Azimuth Distance (km) Brightness Sun altitude
Rises 05:23:46 0° 274° (W) 3,990 - -14.2°
Reaches altitude 10° 05:28:09 10° 254° (WSW) 2,582 - -13.4°
Maximum altitude 05:31:23 15° 220° (SW) 1,955 - -12.9°
Exits shadow 05:31:54 15° 213° (SSW) 1,926 9.0 -12.8°
Drops below altitude 10° 05:34:06 10° 184° (S) 2,077 9.4 -12.4°
Sets 05:37:02 0° 159° (SSE) 2,810 10.3 -11.9°
